Probability
0 0 0 0 0 0 0 0 0 0 0 0 0 0 0 0 0 0 0 0 0 0 0 0 0 0 0 0 0 0 0 0 0 0 0 0 0 0 0 0 0 0 0 0 0 0 0 0 0
0 0 0 0 0 0 0 0 0 0 0 0 0 0 0 0 0 0 0 0 0 0 0 0 0 0 0 0 0 0 0 0 0 0 0 0 0 0 0 0 0 0 0 0 0 0 0 0 0
0 0 0 0 0 0 0 0 0 0 0 0 0 0 0 0 0 0 0 0 0 0 0 0 0 0 0 0 0 0 0 0 0 0 0 0 0 0 0 0 0 0 0 0 0 0 0 0 0
0 0 0 0 0 0 0 0 0 0 0 0 0 0 0 0 0 0 0 0 0 0 0 0 0 0 0 0 0 0 0 0 0 0 0 0 0 0 0 0 0 0 0 0 0 0 0 0 0
0 0 0 0 0 0 0 0 0 0 0 0 0 0 0 0 0 0 0 0 0 0 0 0 0 0 0 0 0 0 0 0 0 0 0 0 0 0 0 0 0 0 0 0 0 0 0 0 0
0 0 0 0 0 0 0 0 0 0 0 0 0 0 0 0 0 0 0 0 0 0 0 0 0 0 0 0 0 0 0 0 0 0 0 0 0 0 0 0 0 0 0 0 0 0 0 0 0
0 0 0 0 0 0 0 0 0 0 0 0 0 0 0 0 0 0 0 0 0 0 0 0 0 0 0 0 0 0 0 0 0 0 0 0 0 0 0 0 0 0 0 0 0 0 0 0 0
0 0 0 0 0 0 0 0 0 0 0 0 0 0 0 0 0 0 0 0 0 0 0 0 0 0 0 0 0 0 0 0 0 0 0 0 0 0 0 0 0 0 0 0 0 0 0 0 0
0 0 0 0 0 0 0 0 0 0 0 0 0 0 0 0 0 0 0 0 0 0 0 0 0 0 0 0 0 0 0 0 0 0 0 0 0 0 0 0 0 0 0 0 0 0 0 0 0
0 0 0 0 0 0 0 0 0 0 0 0 0 0 0 0 0 0 0 0 0 0 0 0 0 0 0 0 0 0 0 0 0 0 0 0 0 0 0 0 0 0 0 0 0 0 0 0 0
0 0 0 0 0 0 0 0 0 0 0 0 0 0 0 0 0 0 0 0 0 0 0 0 0 0 0 0 0 0 0 0 0 0 0 0 0 0 0 0 0 0 0 0 0 0 0 0 0
0 0 0 0 0 0 0 0 0 0 0 0 0 0 0 0 0 0 0 0 0 0 0 0 0 0 0 0 0 0 0 0 0 0 0 0 0 0 0 0 0 0 0 0 0 0 0 0 0
0 0 0 0 0 0 0 0 0 0 0 0 0 0 0 0 0 0 0 0 0 0 0 0 0 0 0 0 0 0 0 0 0 0 0 0 0 0 0 0 0 0 0 0 0 0 0 0 0
0 0 0 0 0 0 0 0 0 0 0 0 0 0 0 0 0 0 0 0 0 0 0 0 0 0 0 0 0 0 0 0 0 0 0 0 0 0 0 0 0 0 0 0 0 0 0 0 0
0 0 0 0 0 0 0 0 0 0 0 0 0 0 0 0 0 0 0 0 0 0 0 0 0 0 0 0 0 0 0 0 0 0 0 0 0 0 0 0 0 0 0 0 0 0 0 0 0
0 0 0 0 0 0 0 0 0 0 0 0 0 0 0 0 0 0 0 0 0 0 0 0 0 0 0 0 0 0 0 0 0 0 0 0 0 0 0 0 0 0 0 0 0 0 0 0 0
0 0 0 0 0 0 0 0 0 0 0 0 0 0 0 0 0 0 0 0 0 0 0 0 0 0 0 0 0 0 0 0 0 0 0 0 0 0 0 0 0 0 0 0 0 0 0 0 0
0 0 0 0 0 0 0 0 0 0 0 0 0 0 0 0 0 0 0 0 0 0 0 0 0 0 0 0 0 0 0 0 0 0 0 0 0 0 0 0 0 0 0 0 0 0 0 0 0
0 0 0 0 0 0 0 0 0 0 0 0 0 0 0 0 0 0 0 0 0 0 0 0 0 0 0 0 0 0 0 0 0 0 0 0 0 0 0 0 0 0 0 0 0 0 0 0 0
0 0 0 0 0 0 0 0 0 0 0 0 0 0 0 0 0 0 0 0 0 0 0 0 0 0 0 0 0 0 0 0 0 0 0 0 0 0 0 0 0 0 0 0 0 0 0 0 0
0 0 0 0 0 0 0 0 0 0 0 0 0 0 0 0 0 0 0 0 0 0 0 0 0 0 0 0 0 0 0 0 0 0 0 0 0 0 0 0 0 0 0 0 0 0 0 0 0
0 0 0 0 0 0 0 0 0 0 0 0 0 0 0 0 0 0 0 0 0 0 0 0 0 0 0 0 0 0 0 0 0 0 0 0 0 0 0 0 0 0 0 0 0 0 0 0 0
0 0 0 0 0 0 0 0 0 0 0 0 0 0 0 0 0 0 0 0 0 0 0 0 0 0 0 0 0 0 0 0 0 0 0 0 0 0 0 1 1 0 0 0 0 0 0 0 0
0 0 0 0 0 0 0 0 0 0 0 0 0 0 0 0 0 0 0 0 0 0 0 0 0 0 0 0 0 0 0 0 0 0 0 0 0 0 1 2 2 1 1 0 0 0 0 0 0
0 0 0 0 0 0 0 0 0 0 0 0 0 0 0 0 0 0 0 0 0 0 0 0 0 0 0 0 0 0 0 0 0 0 0 0 0 0 2 3 3 3 2 1 1 1 0 0 0
0 0 0 0 0 0 0 0 0 0 0 0 0 0 0 0 0 0 0 0 0 0 0 0 0 0 0 0 0 0 0 0 0 0 0 0 0 0 1 2 3 3 3 3 2 2 1 0 0
0 0 0 0 0 0 0 0 0 0 0 0 0 0 0 0 0 0 0 0 0 0 0 0 0 0 0 0 0 0 0 0 0 0 0 0 0 0 0 1 2 3 3 3 3 3 3 1 0
0 0 0 0 0 0 0 0 0 0 0 0 0 0 0 0 0 0 0 0 0 0 0 0 0 0 0 0 0 0 0 0 0 0 0 0 0 0 0 0 1 1 2 3 3 4 4 3 2
0 0 0 0 0 0 0 0 0 0 0 0 0 0 0 0 0 0 0 0 0 0 0 0 0 0 0 0 0 0 0 0 0 0 0 0 0 0 0 0 0 0 1 2 3 3 4 4 4
0 0 0 0 0 0 0 0 0 0 0 0 0 0 0 0 0 0 0 0 0 0 0 0 0 0 0 0 0 0 0 0 0 0 0 0 0 0 0 0 0 0 0 1 3 3 4 4 4
Wind_Speed
14 7 2 4 7 6 1 1 1 1 1 1 2 4 6 5 3 2 1 6 8 8 7 9 10 12 13 12 12 12 12 12 12 12 12 12 12 12 13 13 13 13 13 14 14 14 13 13 13
7 5 5 6 6 3 2 2 2 2 3 4 3 3 3 1 1 3 3 5 8 8 7 8 10 12 13 12 11 11 11 12 12 12 12 11 12 12 12 12 12 12 12 12 12 12 12 11 11
6 4 5 5 4 4 2 2 2 0 2 3 3 2 2 1 2 4 3 7 8 7 6 8 11 12 13 12 11 11 11 11 11 12 11 11 11 11 11 11 11 11 11 11 11 11 11 10 10
4 5 6 5 1 3 3 2 2 2 1 2 4 2 1 1 3 4 7 9 9 7 6 8 11 12 12 12 12 11 11 11 11 11 11 11 11 11 11 11 11 10 10 10 10 9 9 9 9
5 5 5 3 2 3 2 2 3 2 2 1 3 4 0 3 2 7 9 9 9 7 6 7 10 11 12 12 11 11 10 11 11 11 11 10 10 10 10 10 10 10 9 9 9 8 8 8 8
5 5 4 1 3 3 2 1 2 1 2 2 4 4 1 1 4 7 9 8 7 8 7 6 10 10 10 10 10 10 10 10 10 10 10 10 10 10 10 10 10 9 9 8 8 7 6 6 7
4 4 3 3 2 2 1 0 2 2 2 3 5 5 1 1 4 7 7 7 6 7 7 5 6 7 9 10 9 9 9 9 9 9 9 8 8 8 8 8 9 9 8 8 7 6 5 5 6
4 5 2 2 3 3 2 0 1 3 2 2 4 5 4 4 6 7 6 6 6 6 6 6 5 5 5 6 8 9 8 8 8 8 8 8 7 7 7 7 7 8 8 7 6 5 4 4 4
3 4 4 5 5 3 1 1 2 0 3 1 0 1 1 7 9 8 6 6 7 7 6 6 6 5 5 5 6 7 8 8 8 7 8 7 4 4 4 5 6 7 7 7 6 5 3 2 2
3 4 7 5 4 3 1 1 0 2 2 0 0 1 3 8 11 11 10 10 10 10 8 7 7 6 5 5 4 3 4 4 4 4 5 4 3 3 4 5 6 6 6 6 5 4 3 2 1
4 6 4 3 3 2 1 1 1 3 2 4 4 3 6 7 9 10 10 10 11 9 8 8 8 7 7 5 4 3 2 3 4 5 5 4 3 3 3 2 2 3 4 2 2 2 1 1 1
3 4 3 2 1 1 2 1 1 4 6 3 4 5 9 11 13 13 12 10 8 8 9 9 8 8 7 6 5 4 3 3 4 5 6 4 3 3 3 2 3 2 2 2 2 1 2 2 2
4 3 3 3 2 2 2 3 3 5 6 2 1 6 9 12 12 10 8 7 7 9 10 10 9 10 8 7 6 6 6 5 5 5 5 6 5 5 4 3 3 3 3 3 3 3 3 3 3
4 3 3 2 2 2 3 4 3 8 3 2 3 7 9 11 11 8 8 9 10 11 11 10 11 11 10 9 8 7 6 6 5 5 7 7 6 5 5 4 4 4 4 4 4 4 4 3 3
2 1 4 4 4 3 1 7 8 8 3 5 6 7 8 10 9 11 12 12 12 11 10 11 11 11 11 11 10 7 7 7 7 6 7 8 7 7 6 5 5 5 4 5 4 4 3 3 4
2 3 6 5 5 5 6 13 9 6 6 8 8 7 8 9 10 11 10 10 9 9 9 11 10 11 13 11 10 7 7 8 7 7 7 9 9 8 7 6 6 5 5 4 4 4 4 4 4
5 7 8 5 5 5 8 10 7 5 6 9 8 8 8 9 10 11 11 11 10 10 10 10 11 12 13 12 9 8 7 8 8 7 7 9 10 10 8 7 6 6 5 6 5 5 4 5 5
8 7 6 8 4 6 9 11 8 5 6 9 9 8 8 10 13 12 11 11 10 9 9 10 10 11 10 8 7 6 7 8 8 8 9 10 9 11 10 7 7 7 6 6 6 7 6 5 4
5 6 7 6 4 6 11 14 13 9 7 9 10 10 11 12 12 9 9 9 8 9 10 11 11 11 9 7 8 8 9 8 8 8 9 11 10 11 10 8 8 8 8 8 8 7 7 6 3
8 9 7 4 3 5 8 14 12 12 11 11 12 13 13 12 10 9 8 8 9 10 10 10 11 11 11 10 8 6 6 6 7 6 8 11 11 11 10 11 9 9 8 9 9 8 6 5 5
15 15 11 5 2 3 5 11 11 10 10 10 11 12 12 13 14 11 9 8 8 9 10 10 11 11 11 11 5 4 3 2 4 7 9 11 11 11 11 11 10 9 9 9 10 10 10 8 6
17 10 8 7 5 6 5 11 8 9 11 13 14 12 12 13 12 11 9 8 8 9 8 9 10 10 9 9 9 10 10 10 10 8 7 7 10 11 11 11 11 10 9 10 10 10 9 9 8
7 6 9 9 8 8 6 10 10 6 11 13 13 13 13 12 12 11 10 9 8 8 7 7 8 8 8 9 11 11 11 10 6 5 6 8 8 10 11 11 11 11 10 10 10 10 10 9 10
5 4 3 5 7 16 15 12 12 9 12 9 10 11 12 11 10 10 8 6 6 5 5 5 6 7 7 9 10 12 13 11 8 7 7 7 6 7 10 11 11 11 10 11 11 10 11 11 11
8 8 7 8 11 12 10 12 15 8 9 11 11 11 11 10 9 8 7 6 5 4 4 4 5 6 6 7 8 10 11 11 11 9 8 7 6 7 9 10 10 11 11 11 10 10 11 12 12
15 14 11 9 8 5 6 14 11 6 7 7 8 8 7 7 6 6 5 5 4 3 3 3 4 5 5 6 7 7 7 6 6 7 6 6 6 7 6 8 9 10 10 10 10 10 11 10 12
11 14 9 3 2 4 7 8 10 4 5 6 7 7 7 5 5 4 4 3 3 2 2 2 3 3 3 4 5 5 6 6 6 5 5 4 4 4 4 6 7 8 9 10 9 9 10 10 11
9 8 6 10 10 11 8 9 8 5 7 7 7 7 6 5 4 3 2 2 1 1 1 0 1 1 1 1 2 3 4 5 4 3 3 3 4 3 4 5 6 7 8 9 9 9 9 10 10
10 11 9 7 7 8 9 10 8 9 9 9 9 7 7 5 4 3 2 0 0 1 1 1 1 1 1 1 0 1 1 2 2 2 3 3 3 4 5 5 6 7 8 8 9 10 9 11 11
11 13 14 11 10 8 9 12 3 6 6 6 6 5 4 3 2 1 0 1 2 2 2 2 2 2 1 1 1 0 0 0 0 1 2 3 4 4 5 5 5 6 7 7 8 10 10 10 11
Wind_Direction
328 331 32 52 53 51 72 271 205 161 163 80 113 134 144 150 166 191 115 139 135 140 147 146 143 140 137 135 134 131 129 124 122 120 117 115 114 113 111 108 107 105 104 103 102 98 93 89 87
327 344 41 54 78 72 290 270 206 193 154 126 84 95 102 114 98 124 137 153 141 142 144 145 143 142 141 141 140 137 135 130 128 126 123 121 120 117 115 113 112 111 109 108 107 102 96 90 89
347 36 65 66 94 160 212 234 201 97 136 130 94 68 114 159 166 172 176 147 136 138 140 145 145 146 146 146 145 143 141 137 134 131 129 127 125 122 120 119 117 116 115 114 111 106 99 92 90
27 33 52 69 103 212 222 232 186 127 101 91 119 96 25 13 186 175 142 140 135 137 140 148 148 150 151 151 150 150 148 144 142 138 135 133 131 128 127 126 123 120 120 118 115 109 101 93 92
51 63 55 45 287 276 262 241 172 159 158 124 127 131 177 346 107 131 138 143 144 142 144 152 153 154 155 155 155 155 153 151 149 145 143 142 140 139 135 134 131 128 126 123 120 115 105 97 95
48 61 85 223 278 298 291 180 144 156 148 137 134 139 201 21 133 145 144 146 149 149 148 152 157 157 158 158 159 159 159 157 154 152 151 150 150 149 146 144 142 139 136 133 128 122 112 102 101
95 97 156 197 252 294 296 130 154 158 164 191 158 139 246 191 159 144 139 138 144 150 150 153 157 160 163 162 162 162 162 161 159 157 155 155 155 154 151 151 152 150 148 144 139 134 122 114 110
116 110 146 197 202 247 297 353 146 158 177 128 142 154 214 194 144 129 127 139 151 159 163 162 161 161 162 165 168 167 167 166 163 158 156 157 157 156 154 155 161 162 160 157 153 148 138 119 113
88 98 190 206 197 230 291 57 358 21 116 102 112 208 252 135 135 136 144 162 173 180 180 175 172 170 167 167 173 171 172 172 166 161 162 159 153 152 157 166 170 170 168 170 170 168 153 113 89
107 171 213 205 196 211 228 183 235 83 92 135 286 29 106 137 156 166 176 184 190 193 192 188 185 180 174 176 168 170 172 170 167 162 163 159 157 162 164 180 183 179 177 182 188 186 168 127 73
167 196 213 223 209 201 210 237 181 139 207 209 204 185 151 162 176 187 193 194 198 196 196 195 192 187 183 181 175 176 172 171 173 173 171 164 161 165 168 167 183 183 184 182 199 194 177 177 193
192 228 216 232 213 195 211 214 212 198 222 223 210 172 171 181 193 199 201 201 195 197 202 199 195 194 193 187 186 185 184 186 189 187 179 171 172 179 182 184 186 184 181 188 195 201 218 233 240
214 243 233 245 254 250 232 229 235 246 253 283 164 167 189 198 207 211 210 206 202 206 207 203 198 200 197 194 196 195 198 198 197 191 190 185 185 190 191 195 194 196 192 195 202 214 228 242 249
218 229 261 258 244 241 226 254 221 251 240 220 192 200 207 211 213 212 212 213 212 213 212 205 202 203 200 201 202 202 201 201 198 200 199 195 195 195 194 200 202 205 203 202 204 213 224 236 243
176 240 284 251 220 228 205 269 229 234 215 226 231 226 223 225 221 220 218 218 217 218 214 208 207 203 204 207 206 205 203 200 204 206 203 202 201 200 200 203 208 210 205 206 210 221 226 240 245
152 198 243 241 200 203 183 250 250 228 212 234 237 236 235 235 229 229 227 227 223 219 215 213 209 206 208 210 208 207 205 204 209 207 206 208 207 204 203 208 213 207 200 203 211 215 226 238 242
194 218 225 241 211 191 198 244 253 226 206 233 240 237 238 245 248 240 231 226 224 219 216 214 209 209 211 211 209 208 206 209 211 208 210 210 210 207 207 213 213 201 204 210 215 216 214 232 240
194 206 215 217 220 198 223 244 260 256 225 237 244 244 242 243 245 241 235 231 228 223 218 217 213 214 210 207 206 209 213 216 214 213 213 209 209 207 209 215 211 201 209 216 216 221 217 225 234
189 196 215 223 207 203 235 248 254 252 244 247 249 247 245 246 249 247 240 234 230 225 220 218 216 213 201 199 204 210 219 218 216 217 215 212 211 207 209 214 210 207 215 219 215 217 224 229 205
222 229 232 254 220 216 253 260 253 242 237 232 237 242 244 248 256 252 242 230 225 226 224 221 219 214 204 206 203 203 204 212 214 212 214 213 213 210 211 214 214 211 217 220 217 214 222 221 190
221 226 222 221 283 256 285 277 244 243 234 237 235 236 238 239 246 251 246 233 225 227 225 222 220 217 212 206 192 183 182 198 205 213 218 216 213 212 214 215 215 215 215 223 220 216 222 232 213
231 215 207 209 218 244 212 273 251 229 239 237 238 237 240 242 243 245 243 241 232 230 227 223 221 217 214 202 198 198 207 218 221 217 217 213 210 214 216 218 217 219 220 225 223 218 221 226 232
215 173 193 208 222 249 220 257 268 200 234 239 236 236 238 240 239 240 239 237 236 233 227 224 221 219 212 202 204 206 217 226 226 211 213 215 213 215 217 218 220 223 224 226 225 221 221 223 231
162 141 188 203 220 243 225 232 264 202 218 231 230 231 234 238 239 241 245 244 246 245 233 225 218 222 214 206 206 209 217 222 221 219 221 221 219 218 219 220 222 225 226 227 227 226 225 228 230
177 178 206 213 217 238 194 216 252 210 210 212 220 226 230 232 233 236 244 248 251 250 235 222 211 223 217 207 209 214 219 220 222 223 225 224 223 224 224 220 225 228 230 231 227 227 229 229 230
197 197 205 210 218 246 194 227 251 216 221 225 229 232 234 234 233 237 240 239 239 240 232 217 209 219 214 206 211 214 217 219 227 229 228 226 228 231 229 222 227 231 233 234 231 231 232 231 232
189 211 213 226 231 252 235 256 288 243 238 236 237 237 238 238 237 238 241 239 237 236 231 213 207 220 220 212 211 211 214 218 227 231 227 233 240 243 237 232 233 235 236 236 236 237 237 235 235
191 171 179 211 222 237 243 236 239 212 219 225 228 230 235 237 243 245 245 252 269 268 275 238 170 190 246 226 214 214 217 222 231 233 236 242 249 250 248 243 242 242 241 240 239 242 242 240 240
186 195 203 209 207 215 245 251 219 208 206 210 219 221 221 227 234 237 250 291 23 36 44 53 54 61 40 20 354 199 216 217 216 229 245 252 257 255 253 253 250 248 247 244 243 245 244 244 246
204 206 201 214 221 215 238 257 209 206 213 210 218 219 215 210 217 211 77 46 38 39 40 47 42 48 31 25 56 55 30 91 220 259 272 273 269 266 264 264 262 259 256 252 248 250 248 247 248